User: anonymous   Login
Location: *
(50.3440°N, 18.6237°E)
Time: 00:31:47
(UTC+00:00)
Language:

SL-16 R/B - Orbit

View from above orbital plane
View from above orbital plane
View from above satellite
View from above satellite

Ground track
Ground track

The orbit data is extracted from the following two-line orbital elements,

1 28353U 04021B   21061.44448625 -.00000246  00000-0 -10403-3 0  9990
2 28353  71.0010 118.2452 0007559 292.8605  67.1719 14.14241690863621
Epoch (UTC): 02 March 2021 10:40:03
Eccentricity: 0.0007559
inclination: 71.0010°
perigee height: 839 km
apogee height: 850 km
right ascension of ascending node: 118.2452°
argument of perigee: 292.8605°
revolutions per day: 14.14241690
mean anomaly at epoch: 67.1719°
orbit number at epoch: 86362

The dashed part of the orbit path shows where the satellite is in the earth's shadow,  

DLR